Weather History for Wayne, NE

Change the Weather History Date:

Sunday, January 27, 2013

  Actual Average (KOFK) Record (KOFK)
Temperature  
Mean Temperature 36 °F 23 °F  
Max Temperature 38 °F 34 °F 66 °F (1934)
Min Temperature 34 °F 12 °F -29 °F (1902)
Degree Days  
Heating Degree Days 29 42  
Month to date heating degree days 1153  
Since 1 July heating degree days 3859  
Cooling Degree Days 0 0  
Month to date cooling degree days 0  
Year to date cooling degree days 0  
Moisture  
Dew Point 34 °F    
Average Humidity 92    
Maximum Humidity 100    
Minimum Humidity 64    
Precipitation  
Precipitation 0.02 in 0.02 in 1.01 in (1944)
Month to date precipitation 0.50  
Year to date precipitation 0.50  
Snow  
Snow 0.00 in 0.20 in - ()
Month to date snowfall 5.5  
Since 1 July snowfall 16.4  
Snow Depth -    
Sea Level Pressure  
Sea Level Pressure 29.79 in    
Wind  
Wind Speed 9 mph (SSE)    
Max Wind Speed 17 mph    
Max Gust Speed 20 mph    
Visibility 4 miles    
Events Fog , Rain , Snow    
T = Trace of Precipitation, MM = Missing Value Source: NWS Daily Summary

Daily Weather History Graph

Daily Weather History Graph

Search for Another Location

Airport:

Trip Planner

Search our weather history database for the weather conditions in past years. The results will help you decide how hot, cold, wet, or windy it might be!

Date:

Astronomy

Jan. 27, 2013 Rise Set
Actual Time 7:45 AM CST 5:36 PM CST
Civil Twilight 7:15 AM CST 6:06 PM CST
Nautical Twilight 6:41 AM CST 6:40 PM CST
Astronomical Twilight 6:08 AM CST 7:13 PM CST
Moon 6:33 PM CST (1/27) 7:37 AM CST (1/27)
Length of Visible Light 10h 50m
Length of Day
9h 50m
Full, 100% of the Moon is Illuminated
Jan 27
Full
Feb 3
Last Quarter
Feb 10
New
Feb 17
First Quarter
Feb 25
Full

Hourly Weather History & Observations

Time (CST) Temp. Windchill Dew Point Humidity Pressure Visibility Wind Dir Wind Speed Gust Speed Precip Events Conditions
12:15 AM 36.5 °F 27.8 °F 25.9 °F 65% 29.94 in 10.0 mi SSE 13.8 mph - N/A   Clear
12:35 AM 36.7 °F 27.2 °F 25.7 °F 64% 29.93 in 10.0 mi SSE 16.1 mph - N/A   Clear
12:55 AM 36.7 °F 28.9 °F 25.7 °F 64% 29.92 in 10.0 mi SSE 11.5 mph - N/A   Scattered Clouds
1:15 AM 36.1 °F 28.7 °F 25.9 °F 66% 29.91 in 10.0 mi SSE 10.4 mph - N/A   Scattered Clouds
1:35 AM 36.0 °F 28.0 °F 25.9 °F 67% 29.91 in 10.0 mi SSE 11.5 mph - N/A   Scattered Clouds
1:55 AM 35.6 °F 27.5 °F 26.2 °F 69% 29.90 in 10.0 mi SSE 11.5 mph - N/A   Clear
2:15 AM 35.6 °F 27.1 °F 26.1 °F 68% 29.90 in 10.0 mi SSE 12.7 mph - N/A   Clear
2:35 AM 35.8 °F 27.3 °F 25.9 °F 67% 29.90 in 10.0 mi SSE 12.7 mph - N/A   Scattered Clouds
2:55 AM 36.5 °F 28.2 °F 25.9 °F 65% 29.90 in 10.0 mi SSE 12.7 mph - N/A   Mostly Cloudy
3:15 AM 36.7 °F 27.2 °F 25.7 °F 64% 29.89 in 10.0 mi South 16.1 mph 19.6 mph N/A   Overcast
3:35 AM 36.9 °F 27.8 °F 25.9 °F 64% 29.88 in 10.0 mi SSE 15.0 mph - N/A   Overcast
3:55 AM 36.9 °F 27.1 °F 25.9 °F 64% 29.87 in 10.0 mi SSE 17.3 mph - N/A   Overcast
4:15 AM 36.5 °F 28.2 °F 26.1 °F 66% 29.86 in 10.0 mi SSE 12.7 mph 17.3 mph N/A   Overcast
4:35 AM 36.3 °F 28.0 °F 27.0 °F 69% 29.86 in 10.0 mi SSE 12.7 mph - N/A   Light Drizzle
4:55 AM 34.7 °F 24.7 °F 30.9 °F 86% 29.85 in 4.0 mi SSE 16.1 mph - N/A Snow Light Snow
5:15 AM 34.7 °F 25.5 °F 31.6 °F 89% 29.84 in 5.0 mi SSE 13.8 mph - N/A   Overcast
5:35 AM 34.7 °F 25.5 °F 32.0 °F 90% 29.84 in 5.0 mi SSE 13.8 mph - 0.01 in   Overcast
5:55 AM 34.7 °F 26.9 °F 32.4 °F 91% 29.83 in 5.0 mi SSE 10.4 mph - 0.02 in   Overcast
6:15 AM 34.7 °F 26.4 °F 32.9 °F 93% 29.81 in 5.0 mi SE 11.5 mph - N/A   Overcast
6:35 AM 34.7 °F 25.1 °F 33.4 °F 95% 29.83 in 5.0 mi SSE 15.0 mph - N/A   Light Drizzle
6:55 AM 34.9 °F 25.7 °F 33.8 °F 96% 29.82 in 5.0 mi SSE 13.8 mph - N/A   Overcast
7:15 AM 34.9 °F 25.7 °F 34.2 °F 97% 29.82 in 4.0 mi SSE 13.8 mph - N/A   Overcast
7:35 AM 35.1 °F 26.9 °F 34.5 °F 98% 29.81 in 2.5 mi SSE 11.5 mph - N/A   Overcast
7:55 AM 35.1 °F 26.9 °F 34.5 °F 98% 29.81 in 1.2 mi SSE 11.5 mph - N/A   Overcast
8:15 AM 34.9 °F 27.1 °F 34.7 °F 99% 29.81 in 1.0 mi SSE 10.4 mph - N/A Rain Light Rain
8:35 AM 35.1 °F 27.4 °F 34.9 °F 99% 29.81 in 1.0 mi SSE 10.4 mph - N/A Rain Light Rain
8:55 AM 35.6 °F 27.5 °F 35.1 °F 98% 29.80 in 1.0 mi SSE 11.5 mph - N/A Rain Light Rain
9:15 AM 35.6 °F 28.6 °F 35.6 °F 100% 29.80 in 1.8 mi SSE 9.2 mph - N/A   Overcast
9:35 AM 35.8 °F 28.8 °F 35.6 °F 99% 29.79 in 2.0 mi SE 9.2 mph - N/A   Overcast
9:55 AM 36.0 °F 31.1 °F 35.6 °F 99% 29.78 in 2.0 mi SSE 5.8 mph - N/A   Overcast
10:15 AM 36.0 °F 30.3 °F 35.6 °F 99% 29.78 in 1.5 mi SSE 6.9 mph - N/A   Overcast
10:35 AM 36.0 °F 29.6 °F 35.6 °F 99% 29.78 in 1.5 mi SSE 8.1 mph - N/A   Overcast
10:55 AM 35.8 °F 30.1 °F 35.6 °F 99% 29.79 in 1.2 mi SSE 6.9 mph - N/A   Overcast
11:15 AM 35.8 °F - 35.6 °F 99% 29.78 in 1.0 mi Calm Calm - N/A   Overcast
11:35 AM 36.0 °F 33.3 °F 35.6 °F 99% 29.78 in 1.0 mi SSE 3.5 mph - N/A   Overcast
11:55 AM 36.1 °F 32.3 °F 35.8 °F 99% 29.76 in 1.2 mi SSE 4.6 mph - N/A   Overcast
12:15 PM 36.1 °F 31.4 °F 36.0 °F 99% 29.75 in 1.5 mi SSE 5.8 mph - N/A   Overcast
12:35 PM 36.5 °F 30.3 °F 36.0 °F 98% 29.74 in 1.8 mi SSE 8.1 mph - N/A   Overcast
12:55 PM 36.5 °F 31.0 °F 36.5 °F 100% 29.73 in 1.8 mi South 6.9 mph - N/A   Overcast
1:15 PM 36.7 °F 32.0 °F 36.5 °F 99% 29.72 in 1.2 mi SSE 5.8 mph - N/A   Overcast
1:35 PM 37.0 °F 32.4 °F 36.7 °F 99% 29.71 in 1.5 mi SSE 5.8 mph - N/A   Overcast
1:55 PM 37.0 °F 34.5 °F 36.7 °F 99% 29.71 in 1.5 mi SSE 3.5 mph - N/A   Overcast
2:15 PM 37.4 °F 32.1 °F 37.0 °F 99% 29.70 in 1.5 mi South 6.9 mph - N/A   Overcast
2:35 PM 37.6 °F 32.3 °F 37.4 °F 99% 29.69 in 1.5 mi SSE 6.9 mph - N/A   Overcast
2:55 PM 37.8 °F 33.3 °F 37.4 °F 99% 29.69 in 1.8 mi SSE 5.8 mph - N/A   Overcast
3:15 PM 37.8 °F 33.3 °F 37.4 °F 99% 29.70 in 3.0 mi SSE 5.8 mph - N/A   Overcast
3:35 PM 37.9 °F 34.4 °F 37.6 °F 99% 29.70 in 5.0 mi SSE 4.6 mph - N/A   Overcast
3:55 PM 37.9 °F 35.5 °F 37.6 °F 99% 29.70 in 5.0 mi South 3.5 mph - N/A   Overcast
4:15 PM 38.3 °F 34.8 °F 37.8 °F 98% 29.71 in 5.0 mi South 4.6 mph - N/A   Overcast
4:35 PM 38.3 °F 35.9 °F 37.8 °F 98% 29.71 in 5.0 mi SSW 3.5 mph - N/A   Overcast
4:55 PM 37.9 °F - 37.6 °F 99% 29.71 in 4.0 mi Calm Calm - N/A   Overcast
5:15 PM 37.8 °F - 37.4 °F 99% 29.71 in 3.0 mi Calm Calm - N/A   Overcast
5:35 PM 37.6 °F - 37.4 °F 99% 29.72 in 2.5 mi Calm Calm - N/A   Overcast
5:55 PM 37.4 °F - 36.9 °F 98% 29.72 in 2.0 mi Calm Calm - N/A   Overcast
6:15 PM 37.4 °F - 37.4 °F 100% 29.73 in 4.0 mi Calm Calm - N/A   Overcast
6:35 PM 36.7 °F - 36.5 °F 99% 29.74 in 1.8 mi Calm Calm - N/A   Overcast
6:55 PM 36.5 °F - 36.1 °F 99% 29.74 in 0.5 mi Calm Calm - N/A Fog Fog
7:15 PM 36.0 °F - 36.0 °F 100% 29.75 in 0.5 mi Calm Calm - N/A Fog Fog
7:35 PM 35.8 °F - 35.8 °F 100% 29.74 in 0.2 mi Calm Calm - N/A Fog Fog
7:55 PM 35.8 °F - 35.8 °F 100% 29.74 in 0.2 mi Calm Calm - N/A Fog Fog
8:15 PM 35.8 °F - 35.8 °F 100% 29.74 in 0.2 mi Calm Calm - N/A Fog Fog
8:35 PM 35.8 °F - 35.8 °F 100% 29.76 in 0.5 mi Calm Calm - N/A Fog Fog
8:55 PM 36.3 °F - 36.3 °F 100% 29.76 in 0.8 mi Calm Calm - N/A   Overcast
9:15 PM 37.4 °F 34.9 °F 37.4 °F 100% 29.76 in 1.8 mi WSW 3.5 mph - N/A   Overcast
9:35 PM 37.8 °F - 37.8 °F 100% 29.76 in 2.0 mi Calm Calm - N/A   Overcast
9:55 PM 37.4 °F - 37.4 °F 100% 29.76 in 2.0 mi Calm Calm - N/A   Overcast
10:15 PM 37.4 °F - 37.4 °F 100% 29.76 in 1.0 mi Calm Calm - N/A   Overcast
10:35 PM 37.6 °F - 37.6 °F 100% 29.76 in 1.5 mi Calm Calm - N/A   Overcast
10:55 PM 37.0 °F - 37.0 °F 100% 29.78 in 1.8 mi Calm Calm - N/A   Overcast
11:15 PM 37.4 °F - 37.4 °F 100% 29.78 in 1.2 mi Calm Calm - N/A   Overcast
11:35 PM 37.4 °F - 37.4 °F 100% 29.78 in 2.5 mi Calm Calm - N/A   Overcast
11:55 PM 37.6 °F - 37.6 °F 100% 29.78 in 2.0 mi Calm Calm - N/A   Overcast